Flag for U.S.A. Weather past 2 weeks in Gloucester, Massachusetts, U.S.A.

Now
57 °F

Low clouds.


Feels Like: 55 °F
Forecast: 57 / 61 °F
Wind: 8 mph from Northeast

Location: Beverly Municipal Airport

Current Time: Oct 1, 2014 at 4:17:24 AM

Latest Report: Oct 1, 2014 at 3:53 AM


Visibility: 10 mi

Pressure: 30.00 "Hg

Humidity: 90%

Dew point: 54 °F

Location of GloucesterLocation

Historic Weather in Gloucester — Graph

°F

Gloucester temperature yesterday

Maximum temperature yesterday: 57 °F (at 11:53 PM)
Minimum temperature yesterday: 55 °F (at 3:53 AM)
Average temperature yesterday: 56 °F

Past Weeks' High & Low Weather Summary

 TemperatureHumidityPressure
High86 °F (Sep 28, 2:53 PM)97% (Sep 17, 6:53 AM)30.63 "Hg (Sep 17, 6:53 AM)
Low35 °F (Sep 20, 5:53 AM)33% (Sep 19, 3:53 PM)29.50 "Hg (Sep 22, 2:53 AM)
Average59 °F75%30.10 "Hg
* Reported Sep 16 2:53 AM — Oct 1 2:53 AM, Gloucester, Weather by CustomWeather, © 2014

Note: Actual official high and low records may vary slightly from our data, if they occured in-between our weather recording intervals... More about our weather records

Advertising

Gloucester weather history for previous 24 hours

 ConditionsComfort  
Time TempWeatherWind HumidityBarometerVisibility
2:53 AM
Oct 1
57 °FLight rain. Low clouds.8 mph90%30.00 "Hg10 mi
1:53 AM57 °FLight rain. Overcast.8 mph90%30.02 "Hg8 mi
12:53 AM57 °FLight rain. Low clouds.8 mph90%30.02 "Hg8 mi
11:53 PM
Sep 30
57 °FMostly cloudy.5 mph90%30.02 "Hg10 mi
10:58 PM56 °FMostly cloudy.5 mph93%30.02 "Hg10 mi
9:53 PM56 °FLow clouds.6 mph93%30.01 "Hg10 mi
8:53 PM56 °FMostly cloudy.5 mph93%30.01 "Hg10 mi
7:53 PM56 °FLight rain. Low clouds.3 mph93%30.02 "Hg8 mi
6:53 PM56 °FLow clouds.5 mph90%30.00 "Hg10 mi
5:53 PM56 °FLight rain. Low clouds.5 mph90%29.99 "Hg9 mi
4:53 PM55 °FLight rain. Fog.9 mph93%29.98 "Hg6 mi
3:53 PM56 °FLight rain. Low clouds.8 mph90%29.98 "Hg8 mi
2:53 PM56 °FLight rain. Low clouds.8 mph90%30.00 "Hg8 mi
1:53 PM56 °FLow clouds.6 mph90%30.01 "Hg7 mi
12:53 PM56 °FLight rain. Low clouds.6 mph93%30.01 "Hg10 mi
11:53 AM56 °FLight rain. Low clouds.6 mph90%30.02 "Hg10 mi
10:53 AM56 °FLow clouds.8 mph90%30.02 "Hg7 mi
9:53 AM56 °FLow clouds.9 mph90%30.02 "Hg7 mi
8:53 AM55 °FLow clouds.7 mph93%30.03 "Hg9 mi
7:53 AM55 °FFog.5 mph93%30.02 "Hg5 mi
6:53 AM55 °FFog.8 mph93%30.01 "Hg4 mi
5:53 AM55 °FFog.8 mph93%29.99 "Hg6 mi
4:53 AM55 °FFog.12 mph93%29.99 "Hg2 mi
Weather by CustomWeather, © 2014

See weather overviewHow to use our weather pages